Location: Indian Hills
(32.9760°N, 85.9450°W)
Time: 01:24:00
(UTC+00:00)

STARLINK-51 - Pass Details

Date: 09 December 2019
Orbit: 529 x 530 km, 53.0° (Epoch: 28 January)

Event Time Altitude Azimuth Distance (km) Brightness Sun altitude
Exits shadow 09:30:45 - 99° (E) 1,853 7.1 -37.8°
Enters shadow 10:32:11 -61° 317° (NW) 11,728 10.3 -25.1°
Maximum altitude 11:06:07 31° 232° (SW) 937 4.5 -18.1°
